SM6KNE Weather Reports


Display with metric or nautical units.
time (UTC)temp
F
wind
direction
speed
MPH
gust
MPH
rain 1hr
in
rain 24hr
in
rain mn
in
humidity
%
barometer
mb
20260902191037 57 283 7.0 8.0 0.00 0.00 0.00 74 1012.1
20260902185040 57 248 8.0 9.0 0.00 0.00 0.00 74 1012.1
20260902184034 57 260 7.0 8.0 0.00 0.00 0.00 74 1012.1
20260902183103 57 269 6.0 8.0 0.00 0.00 0.00 74 1012.1
20260902182043 58 258 6.0 6.0 0.00 0.00 0.00 73 1012.1
20260902181043 58 260 6.0 9.0 0.00 0.00 0.00 73 1012.1
20260902180030 59 254 6.0 7.0 0.00 0.00 0.00 71 1012.1
20260902175042 59 251 6.0 8.0 0.00 0.00 0.00 70 1012.1
20260902174043 59 241 9.0 11.0 0.00 0.00 0.00 70 1012.1
20260902173043 60 266 5.0 6.0 0.00 0.00 0.00 69 1012.1
20260902172022 61 278 8.0 8.0 0.00 0.00 0.00 68 1012.1
20260902171046 61 248 9.0 12.0 0.00 0.00 0.00 67 1012.1
20260902170032 63 293 10.0 10.0 0.00 0.00 0.00 65 1012.1
20260902165016 64 285 7.0 9.0 0.00 0.00 0.00 63 1012.1
20260902164028 65 266 9.0 11.0 0.00 0.00 0.00 59 1012.1
20260902163043 67 280 5.0 6.0 0.00 0.00 0.00 57 1012.1
20260902162043 67 251 7.0 10.0 0.00 0.00 0.00 55 1012.1
20260902161024 71 279 9.0 12.0 0.00 0.00 0.00 51 1012.1
20260902160046 72 283 10.0 17.0 0.00 0.00 0.00 51 1012.1
20260902155043 72 276 9.0 11.0 0.00 0.00 0.00 51 1012.1
20260902154023 74 293 6.0 6.0 0.00 0.00 0.00 49 1012.1
20260902153043 74 234 11.0 15.0 0.00 0.00 0.00 49 1012.1
20260902152040 72 279 7.0 10.0 0.00 0.00 0.00 49 1012.1
20260902151023 72 272 8.0 9.0 0.00 0.00 0.00 49 1012.1
20260902150036 75 251 9.0 14.0 0.00 0.00 0.00 46 1012.1
20260902145024 76 253 8.0 11.0 0.00 0.00 0.00 47 1012.1
20260902144018 73 253 9.0 13.0 0.00 0.00 0.00 47 1012.1
20260902143016 72 293 8.0 9.0 0.00 0.00 0.00 48 1012.1
20260902142043 73 284 10.0 12.0 0.00 0.00 0.00 47 1012.1
20260902141016 71 270 5.0 6.0 0.00 0.00 0.00 51 1012.1
20260902140043 70 264 10.0 13.0 0.00 0.00 0.00 49 1012.1
20260902135044 72 278 10.0 12.0 0.00 0.00 0.00 48 1012.1
20260902134015 72 245 6.0 10.0 0.00 0.00 0.00 48 1012.1
20260902133103 70 259 7.0 10.0 0.00 0.00 0.00 48 1012.1
20260902132044 75 293 6.0 6.0 0.00 0.00 0.00 46 1012.1
20260902131043 76 285 7.0 8.0 0.00 0.00 0.00 46 1011.1
20260902130044 76 293 5.0 7.0 0.00 0.00 0.00 47 1011.1
20260902125044 73 270 8.0 10.0 0.00 0.00 0.00 44 1012.1
20260902124036 77 293 7.0 9.0 0.00 0.00 0.00 45 1012.1
20260902123034 77 259 8.0 13.0 0.00 0.00 0.00 44 1012.1
20260902121030 73 271 7.0 10.0 0.00 0.00 0.00 49 1012.1
20260902120043 69 266 7.0 11.0 0.00 0.00 0.00 50 1012.1
20260902115043 70 254 7.0 9.0 0.00 0.00 0.00 48 1012.1
20260902114043 73 278 8.0 11.0 0.00 0.00 0.00 50 1012.1
20260902113043 72 255 7.0 7.0 0.00 0.00 0.00 51 1012.1
20260902112024 71 271 6.0 9.0 0.00 0.00 0.00 51 1012.1
20260902111045 71 293 7.0 9.0 0.00 0.00 0.00 50 1012.1
20260902105039 68 248 9.0 10.0 0.00 0.00 0.00 56 1013.1
20260902104054 65 280 9.0 11.0 0.00 0.00 0.00 59 1013.1
20260902103043 64 265 8.0 10.0 0.00 0.00 0.00 59 1012.1
20260902102036 65 227 8.0 10.0 0.00 0.00 0.00 60 1012.9
20260902101043 65 273 11.0 13.0 0.00 0.00 0.00 60 1013.1
20260902100034 65 276 11.0 14.0 0.00 0.00 0.00 60 1012.1
20260902095031 65 281 6.0 9.0 0.00 0.00 0.00 63 1013.1
20260902094103 63 261 6.0 6.0 0.00 0.00 0.00 64 1013.1
20260902093045 63 277 8.0 11.0 0.00 0.00 0.00 64 1012.1
20260902092025 62 253 11.0 13.0 0.00 0.00 0.00 64 1012.1
20260902091037 63 283 8.0 13.0 0.00 0.00 0.00 65 1012.1
20260902090025 63 263 6.0 8.0 0.00 0.00 0.00 67 1012.1
20260902085111 62 279 7.0 9.0 0.00 0.00 0.00 67 1012.1
20260902084031 62 284 8.0 9.0 0.00 0.00 0.00 68 1012.1
20260902083015 62 278 12.0 13.0 0.00 0.00 0.00 69 1012.1
20260902082028 61 293 8.0 11.0 0.00 0.00 0.00 73 1012.1
20260902081103 61 293 5.0 6.0 0.00 0.00 0.00 77 1012.1
20260902080043 61 255 9.0 10.0 0.00 0.00 0.00 78 1012.1
20260902075043 61 270 10.0 13.0 0.00 0.00 0.00 79 1011.2
20260902074043 61 252 6.0 8.0 0.00 0.00 0.00 89 1011.1
20260902073043 61 256 9.0 11.0 0.00 0.00 0.00 90 1011.1
20260902072024 61 248 9.0 10.0 0.00 0.00 0.00 91 1011.1
20260902071042 61 273 7.0 11.0 0.00 0.00 0.00 93 1011.1
20260902070053 61 277 6.0 9.0 0.00 0.00 0.00 95 1011.1
20260902065124 61 248 4.0 5.0 0.00 0.00 0.00 95 1011.1
20260902064039 61 256 7.0 8.0 0.00 0.00 0.00 96 1011.1
20260902063033 61 248 4.0 5.0 0.00 0.00 0.00 96 1011.1
20260902062024 60 275 3.0 7.0 0.00 0.00 0.00 96 1011.1
20260902061015 60 254 6.0 9.0 0.00 0.00 0.00 96 1011.1
20260902060043 60 227 6.0 10.0 0.00 0.00 0.00 96 1011.1
20260902055038 60 248 5.0 5.0 0.00 0.00 0.00 96 1011.1
20260902054124 59 264 4.0 6.0 0.00 0.00 0.00 96 1011.1
20260902053103 59 180 3.0 5.0 0.00 0.00 0.00 96 1011.1
20260902052045 59 248 3.0 5.0 0.00 0.00 0.00 96 1011.1
20260902051033 59 273 2.0 6.0 0.00 0.00 0.00 96 1011.1
20260902050035 59 293 0.0 3.0 0.00 0.00 0.00 96 1011.1
20260902045015 59 282 2.0 4.0 0.00 0.00 0.00 96 1011.1
20260902044043 59 264 2.0 4.0 0.00 0.00 0.00 96 1011.1
20260902043044 59 235 2.0 5.0 0.00 0.00 0.00 96 1011.1
20260902042021 59 203 2.0 3.0 0.00 0.00 0.00 95 1011.1
20260902041045 59 248 0.0 1.0 0.00 0.00 0.00 95 1011.1
20260902040043 58 217 1.0 2.0 0.00 0.00 0.00 95 1011.1
20260902035103 58 293 2.0 7.0 0.00 0.00 0.00 94 1011.1
20260902034043 58 203 1.0 1.0 0.00 0.00 0.00 94 1011.1
20260902033103 58 0.0 0.0 0.00 0.00 0.00 93 1011.1
20260902032023 58 293 1.0 2.0 0.00 0.00 0.00 93 1012.1
20260902031035 58 0.0 0.0 0.00 0.00 0.00 93 1012.1
20260902030043 58 0.0 0.0 0.00 0.00 0.00 92 1012.1
20260902025017 58 0.0 0.0 0.00 0.00 0.00 92 1012.1
20260902024015 58 0.0 0.0 0.00 0.00 0.00 91 1012.1
20260902023043 58 0.0 0.0 0.00 0.00 0.00 91 1012.1
20260902022043 58 0.0 0.0 0.00 0.00 0.00 90 1012.1
20260902021043 58 0.0 0.0 0.00 0.00 0.00 90 1012.1
20260902020045 58 0.0 0.0 0.00 0.00 0.00 90 1012.1
20260902015043 58 248 0.0 1.0 0.00 0.00 0.00 89 1012.1
20260902014023 58 0.0 0.0 0.00 0.00 0.00 89 1012.1
20260902013044 58 0.0 0.0 0.00 0.00 0.00 89 1012.1
20260902012043 58 293 1.0 3.0 0.00 0.00 0.00 88 1012.1
20260902011016 58 267 4.0 5.0 0.00 0.00 0.00 89 1012.1
20260902010051 58 257 5.0 7.0 0.00 0.00 0.00 89 1012.1
20260902005035 58 265 5.0 8.0 0.00 0.00 0.00 89 1012.1
20260902004035 57 279 5.0 7.0 0.00 0.00 0.00 90 1012.1
20260902003018 57 259 5.0 6.0 0.00 0.00 0.00 89 1012.1
20260902002044 57 264 7.0 8.0 0.00 0.00 0.00 90 1012.1
20260902001043 56 258 6.0 6.0 0.00 0.00 0.00 89 1012.1
20260902000103 56 254 7.0 7.0 0.00 0.00 0.00 89 1012.1
20260901235044 57 250 6.0 7.0 0.00 0.00 0.00 89 1012.1
20260901234044 57 248 9.0 9.0 0.00 0.00 0.00 88 1012.1
20260901233103 57 267 5.0 5.0 0.00 0.00 0.00 88 1012.1
20260901232103 57 257 3.0 4.0 0.00 0.00 0.00 87 1012.1
20260901231015 57 290 2.0 3.0 0.00 0.00 0.00 87 1013.1
20260901230025 57 243 3.0 7.0 0.00 0.00 0.00 87 1013.1
20260901225043 58 263 3.0 5.0 0.00 0.00 0.00 88 1013.1
20260901224037 57 267 7.0 9.0 0.00 0.00 0.00 88 1013.1
20260901223043 58 261 5.0 7.0 0.00 0.00 0.00 88 1013.1
20260901222033 57 274 6.0 7.0 0.00 0.00 0.00 88 1013.1
20260901221045 58 274 5.0 6.0 0.00 0.00 0.00 88 1013.1
20260901220043 58 250 8.0 9.0 0.00 0.00 0.00 88 1013.1
20260901215027 58 248 7.0 8.0 0.00 0.00 0.00 87 1012.1
20260901214103 58 259 9.0 9.0 0.00 0.00 0.00 88 1012.1
20260901213023 58 259 8.0 11.0 0.00 0.00 0.00 88 1012.1
20260901212056 59 254 9.0 12.0 0.00 0.00 0.00 88 1012.1
20260901211103 59 262 9.0 11.0 0.00 0.00 0.00 88 1012.1
20260901210017 59 261 8.0 10.0 0.00 0.00 0.00 88 1012.1
20260901205034 59 265 8.0 9.0 0.00 0.00 0.00 88 1012.1
20260901204043 60 239 7.0 11.0 0.00 0.00 0.00 88 1012.1
20260901203035 60 224 6.0 6.0 0.00 0.00 0.00 89 1012.1
20260901202043 60 253 6.0 10.0 0.00 0.00 0.00 89 1012.1
20260901201043 60 248 7.0 9.0 0.00 0.00 0.00 90 1012.1
20260901200043 60 250 9.0 10.0 0.00 0.00 0.00 90 1012.1
20260901195030 60 248 7.0 9.0 0.00 0.00 0.00 89 1012.1
20260901194043 60 248 5.0 6.0 0.00 0.00 0.00 89 1012.1
20260901193123 60 271 7.0 9.0 0.00 0.00 0.00 90 1012.1
20260901192048 60 231 5.0 7.0 0.00 0.00 0.00 89 1012.1